Torna al catalogo

FENGYUN 1C DEB

AttivoPO
NORAD 30828·DEBRIS·🇨🇳 China

Lanciato May 10, 1999 da Taiyuan Satellite Launch Center

Loading…

Prossimi Passaggi (prossime 24 ore)

TLE

AggiornatoSource: Space-Track

Epoca: Sep 14, 2026, 14:56 UTC

1 30828U 99025AVN 26257.62290597  .00004862  00000-0  44249-3 0  9994
2 30828  98.3956  21.8963 0191609  14.6249 346.0399 14.82719262 27234

Traccia FENGYUN 1C DEB in tempo reale con AllMySat

Download on the App Store